WBANNO,USDM_WEEK,LONGITUDE,LATITUDE,SMVWC_5_CM_MEAN,SMANOM_5_CM_MEAN,SMPERC_5_CM_30COUNTS,SMPERC_5_CM_70COUNTS,SMVWC_10_CM_MEAN,SMANOM_10_CM_MEAN,SMPERC_10_CM_30COUNTS,SMPERC_10_CM_70COUNTS,SMVWC_20_CM_MEAN,SMANOM_20_CM_MEAN,SMPERC_20_CM_30COUNTS,SMPERC_20_CM_70COUNTS,SMVWC_50_CM_MEAN,SMANOM_50_CM_MEAN,SMPERC_50_CM_30COUNTS,SMPERC_50_CM_70COUNTS,SMVWC_100_CM_MEAN,SMANOM_100_CM_MEAN,SMPERC_100_CM_30COUNTS,SMPERC_100_CM_70COUNTS,SMVWC_TOP_CM_MEAN,SMANOM_TOP_CM_MEAN,SMPERC_TOP_CM_30COUNTS,SMPERC_TOP_CM_70COUNTS,SMVWC_COLUMN_CM_MEAN,SMANOM_COLUMN_CM_MEAN,SMPERC_COLUMN_CM_30COUNTS,SMPERC_COLUMN_CM_70COUNTS
94059,20100526,-105.21,48.49,,,,,,,,,,,,,,,,,,,,,,,,,,,,
94059,20100527,-105.21,48.49,,,,,,,,,,,,,,,,,,,,,,,,,,,,
94059,20100528,-105.21,48.49,,,,,,,,,,,,,,,,,,,,,,,,,,,,
94059,20100529,-105.21,48.49,,,,,,,,,,,,,,,,,,,,,,,,,,,,
94059,20100530,-105.21,48.49,,,,,,,,,,,,,,,,,,,,,,,,,,,,
94059,20100531,-105.21,48.49,,,,,,,,,,,,,,,,,,,,,,,,,,,,
94059,20100601,-105.21,48.49,0.32,0.85,0,1,0.328,1,0,1,0.303,,,,,,,,,,,,0.324,0.9,0,1,,,,
94059,20100602,-105.21,48.49,0.319,0.84,0,1,0.326,0.99,0,1,0.303,,,,,,,,,,,,0.322,0.89,0,1,,,,
94059,20100603,-105.21,48.49,0.318,0.82,0,1,0.325,0.97,0,1,0.302,,,,,,,,,,,,0.321,0.87,0,1,,,,
94059,20100604,-105.21,48.49,0.317,0.8,0,1,0.323,0.94,0,1,0.301,,,,,,,,,,,,0.32,0.85,0,1,,,,
94059,20100605,-105.21,48.49,0.312,0.75,0,1,0.319,0.89,0,1,0.298,,,,,,,,,,,,0.316,0.8,0,1,,,,
94059,20100606,-105.21,48.49,0.308,0.7,0,0.988,0.315,0.84,0,1,0.295,,,,,,,,,,,,0.312,0.74,0,1,,,,
94059,20100607,-105.21,48.49,0.304,0.64,0,0.952,0.311,0.78,0,0.988,0.294,,,,,,,,,,,,0.307,0.69,0,0.976,,,,
94059,20100608,-105.21,48.49,0.302,0.6,0,0.881,0.307,0.73,0,0.97,0.292,,,,,,,,,,,,0.304,0.64,0,0.929,,,,
94059,20100609,-105.21,48.49,0.301,0.57,0,0.804,0.304,0.68,0,0.952,0.29,,,,,,,,,,,,0.303,0.6,0,0.899,,,,
94059,20100610,-105.21,48.49,0.301,0.53,0,0.708,0.302,0.63,0,0.875,0.289,,,,,,,,,,,,0.301,0.56,0,0.804,,,,
94059,20100611,-105.21,48.49,0.298,0.48,0,0.571,0.299,0.58,0,0.792,0.288,,,,,,,,,,,,0.299,0.51,0,0.679,,,,
94059,20100612,-105.21,48.49,0.3,0.47,0,0.548,0.3,0.55,0,0.768,0.287,,,,,,,,,,,,0.3,0.5,0,0.655,,,,
94059,20100613,-105.21,48.49,0.303,0.47,0,0.536,0.301,0.54,0,0.75,0.287,,,,,,,,,,,,0.302,0.49,0,0.643,,,,
94059,20100614,-105.21,48.49,0.306,0.47,0,0.518,0.303,0.54,0,0.75,0.287,,,,,,,,,,,,0.304,0.49,0,0.619,,,,
94059,20100615,-105.21,48.49,0.306,0.46,0,0.494,0.304,0.53,0,0.714,0.287,,,,,,,,,,,,0.305,0.48,0,0.589,,,,
94059,20100616,-105.21,48.49,0.305,0.45,0,0.476,0.304,0.52,0,0.625,0.288,,,,,,,,,,,,0.304,0.47,0,0.494,,,,
94059,20100617,-105.21,48.49,0.304,0.45,0,0.47,0.302,0.5,0,0.577,0.288,,,,,,,,,,,,0.303,0.46,0,0.464,,,,
94059,20100618,-105.21,48.49,0.308,0.49,0,0.607,0.303,0.51,0,0.607,0.288,,,,,,,,,,,,0.305,0.48,0,0.583,,,,
94059,20100619,-105.21,48.49,0.31,0.52,0,0.631,0.304,0.53,0,0.631,0.289,,,,,,,,,,,,0.307,0.51,0,0.607,,,,
94059,20100620,-105.21,48.49,0.31,0.55,0,0.655,0.305,0.55,0,0.649,0.29,,,,,,,,,,,,0.308,0.53,0,0.619,,,,
94059,20100621,-105.21,48.49,0.311,0.58,0,0.708,0.306,0.57,0,0.661,0.291,,,,,,,,,,,,0.309,0.56,0,0.667,,,,
94059,20100622,-105.21,48.49,0.312,0.61,0,0.804,0.307,0.6,0,0.714,0.292,,,,,,,,,,,,0.309,0.59,0,0.744,,,,
94059,20100623,-105.21,48.49,0.311,0.62,0,0.893,0.307,0.63,0,0.821,0.293,,,,,,,,,,,,0.309,0.61,0,0.869,,,,
94059,20100624,-105.21,48.49,0.31,0.64,0,0.988,0.308,0.66,0,0.946,0.293,,,,,,,,,,,,0.309,0.63,0,0.994,,,,
94059,20100625,-105.21,48.49,0.303,0.6,0,0.946,0.304,0.65,0,0.988,0.294,,,,,,,,,,,,0.304,0.61,0,0.988,,,,
94059,20100626,-105.21,48.49,0.292,0.53,0,0.815,0.295,0.59,0,0.905,0.292,,,,,,,,,,,,0.293,0.55,0,0.851,,,,
94059,20100627,-105.21,48.49,0.28,0.44,0,0.673,0.284,0.52,0,0.768,0.288,,,,,,,,,,,,0.282,0.47,0,0.708,,,,
94059,20100628,-105.21,48.49,0.266,0.34,0,0.53,0.272,0.43,0,0.625,0.282,,,,,,,,,,,,0.269,0.37,0,0.565,,,,
94059,20100629,-105.21,48.49,0.254,0.24,0,0.387,0.259,0.33,0,0.482,0.275,,,,,,,,,,,,0.256,0.27,0,0.423,,,,
94059,20100630,-105.21,48.49,0.242,0.14,0,0.25,0.246,0.22,0,0.339,0.267,,,,,,,,,,,,0.244,0.17,0,0.28,,,,
94059,20100701,-105.21,48.49,0.229,0.03,0,0.113,0.233,0.11,0,0.196,0.258,,,,,,,,,,,,0.231,0.05,0,0.137,,,,
94059,20100702,-105.21,48.49,0.217,-0.08,0.048,0.012,0.221,0,0,0.065,0.248,,,,,,,,,,,,0.219,-0.06,0.012,0.006,,,,
94059,20100703,-105.21,48.49,0.207,-0.18,0.167,0,0.211,-0.1,0.042,0.006,0.238,,,,,,,,,,,,0.209,-0.15,0.125,0,,,,
94059,20100704,-105.21,48.49,0.197,-0.27,0.31,0,0.201,-0.19,0.179,0,0.227,,,,,,,,,,,,0.199,-0.25,0.268,0,,,,
94059,20100705,-105.21,48.49,0.189,-0.34,0.452,0,0.194,-0.27,0.321,0,0.217,,,,,,,,,,,,0.192,-0.32,0.411,0,,,,
94059,20100706,-105.21,48.49,0.182,-0.41,0.595,0,0.187,-0.33,0.464,0,0.208,,,,,,,,,,,,0.185,-0.39,0.554,0,,,,
94059,20100707,-105.21,48.49,0.18,-0.42,0.655,0,0.184,-0.36,0.53,0,0.201,,,,,,,,,,,,0.182,-0.41,0.619,0,,,,
94059,20100708,-105.21,48.49,0.184,-0.37,0.655,0,0.185,-0.34,0.53,0,0.197,,,,,,,,,,,,0.185,-0.37,0.619,0,,,,
94059,20100709,-105.21,48.49,0.191,-0.29,0.607,0,0.186,-0.32,0.53,0,0.193,,,,,,,,,,,,0.188,-0.32,0.607,0,,,,
94059,20100710,-105.21,48.49,0.196,-0.23,0.488,0,0.187,-0.3,0.488,0,0.192,,,,,,,,,,,,0.191,-0.27,0.494,0,,,,
94059,20100711,-105.21,48.49,0.2,-0.17,0.345,0,0.187,-0.28,0.393,0,0.191,,,,,,,,,,,,0.194,-0.23,0.351,0,,,,
94059,20100712,-105.21,48.49,0.203,-0.13,0.226,0,0.188,-0.26,0.369,0,0.191,,,,,,,,,,,,0.195,-0.2,0.262,0,,,,
94059,20100713,-105.21,48.49,0.206,-0.09,0.161,0,0.188,-0.24,0.339,0,0.19,,,,,,,,,,,,0.197,-0.17,0.22,0,,,,
94059,20100714,-105.21,48.49,0.203,-0.11,0.238,0,0.185,-0.25,0.411,0,0.188,,,,,,,,,,,,0.194,-0.18,0.298,0,,,,
94059,20100715,-105.21,48.49,0.195,-0.18,0.369,0,0.18,-0.3,0.548,0,0.185,,,,,,,,,,,,0.188,-0.23,0.44,0,,,,
94059,20100716,-105.21,48.49,0.187,-0.25,0.506,0,0.176,-0.33,0.673,0,0.182,,,,,,,,,,,,0.181,-0.29,0.583,0,,,,
94059,20100717,-105.21,48.49,0.18,-0.31,0.631,0,0.173,-0.35,0.804,0,0.178,,,,,,,,,,,,0.176,-0.33,0.714,0,,,,
94059,20100718,-105.21,48.49,0.175,-0.35,0.768,0,0.17,-0.36,0.905,0,0.174,,,,,,,,,,,,0.172,-0.36,0.857,0,,,,
94059,20100719,-105.21,48.49,0.17,-0.38,0.887,0,0.168,-0.37,0.929,0,0.171,,,,,,,,,,,,0.169,-0.38,0.946,0,,,,
94059,20100720,-105.21,48.49,0.166,-0.43,0.952,0,0.165,-0.39,0.958,0,0.169,,,,,,,,,,,,0.166,-0.41,0.988,0,,,,
94059,20100721,-105.21,48.49,0.163,-0.44,0.958,0,0.164,-0.4,0.964,0,0.166,,,,,,,,,,,,0.163,-0.43,0.988,0,,,,
94059,20100722,-105.21,48.49,0.161,-0.45,0.97,0,0.162,-0.41,0.97,0,0.164,,,,,,,,,,,,0.162,-0.44,0.988,0,,,,
94059,20100723,-105.21,48.49,0.16,-0.45,0.958,0,0.16,-0.41,0.988,0,0.162,,,,,,,,,,,,0.16,-0.44,0.988,0,,,,
94059,20100724,-105.21,48.49,0.176,-0.17,0.833,0.143,0.169,-0.23,0.863,0.131,0.161,,,,,,,,,,,,0.173,-0.2,0.857,0.143,,,,
94059,20100725,-105.21,48.49,0.192,0.1,0.696,0.286,0.181,0,0.72,0.274,0.161,,,,,,,,,,,,0.187,0.05,0.714,0.286,,,,
94059,20100726,-105.21,48.49,0.207,0.35,0.554,0.429,0.191,0.21,0.577,0.417,0.161,,,,,,,,,,,,0.199,0.29,0.571,0.429,,,,
94059,20100727,-105.21,48.49,0.22,0.58,0.411,0.571,0.199,0.39,0.435,0.56,0.163,,,,,,,,,,,,0.21,0.51,0.429,0.571,,,,
94059,20100728,-105.21,48.49,0.229,0.76,0.268,0.714,0.205,0.53,0.292,0.69,0.164,,,,,,,,,,,,0.217,0.67,0.286,0.714,,,,
94059,20100729,-105.21,48.49,0.236,0.89,0.125,0.81,0.209,0.63,0.149,0.726,0.166,,,,,,,,,,,,0.222,0.8,0.143,0.827,,,,
94059,20100730,-105.21,48.49,0.239,0.98,0,0.845,0.212,0.72,0.006,0.738,0.167,,,,,,,,,,,,0.226,0.89,0,0.875,,,,
94059,20100731,-105.21,48.49,0.224,0.77,0,0.702,0.204,0.6,0,0.607,0.169,,,,,,,,,,,,0.214,0.73,0,0.732,,,,
94059,20100801,-105.21,48.49,0.209,0.56,0,0.56,0.193,0.42,0,0.464,0.168,,,,,,,,,,,,0.201,0.53,0,0.589,,,,
94059,20100802,-105.21,48.49,0.196,0.38,0,0.417,0.183,0.28,0,0.321,0.167,,,,,,,,,,,,0.19,0.36,0,0.446,,,,
94059,20100803,-105.21,48.49,0.185,0.22,0,0.274,0.176,0.15,0,0.179,0.165,,,,,,,,,,,,0.18,0.21,0,0.304,,,,
94059,20100804,-105.21,48.49,0.176,0.1,0,0.131,0.17,0.07,0,0.048,0.163,,,,,,,,,,,,0.173,0.1,0,0.161,,,,
94059,20100805,-105.21,48.49,0.17,0.02,0.006,0.036,0.167,0.01,0,0.012,0.161,,,,,,,,,,,,0.168,0.02,0,0.048,,,,
94059,20100806,-105.21,48.49,0.165,-0.05,0.024,0,0.163,-0.04,0,0,0.159,,,,,,,,,,,,0.164,-0.04,0.012,0,,,,
94059,20100807,-105.21,48.49,0.162,-0.1,0.06,0,0.161,-0.07,0,0,0.156,,,,,,,,,,,,0.161,-0.09,0.036,0,,,,
94059,20100808,-105.21,48.49,0.161,-0.09,0.06,0.012,0.159,-0.09,0.006,0,0.155,,,,,,,,,,,,0.16,-0.1,0.036,0,,,,
94059,20100809,-105.21,48.49,0.161,-0.06,0.06,0.024,0.157,-0.1,0.012,0,0.154,,,,,,,,,,,,0.159,-0.1,0.036,0,,,,
94059,20100810,-105.21,48.49,0.161,-0.03,0.06,0.06,0.156,-0.11,0.012,0,0.154,,,,,,,,,,,,0.158,-0.09,0.036,0,,,,
94059,20100811,-105.21,48.49,0.161,0,0.06,0.071,0.156,-0.1,0.012,0.006,0.153,,,,,,,,,,,,0.158,-0.07,0.036,0,,,,
94059,20100812,-105.21,48.49,0.161,0.03,0.054,0.071,0.155,-0.08,0.012,0.006,0.152,,,,,,,,,,,,0.158,-0.06,0.036,0,,,,
94059,20100813,-105.21,48.49,0.162,0.06,0.036,0.071,0.155,-0.07,0.012,0.006,0.152,,,,,,,,,,,,0.158,-0.04,0.024,0,,,,
94059,20100814,-105.21,48.49,0.162,0.08,0,0.071,0.154,-0.08,0.024,0.006,0.151,,,,,,,,,,,,0.158,-0.04,0.012,0,,,,
94059,20100815,-105.21,48.49,0.16,0.06,0,0.06,0.153,-0.1,0.018,0.006,0.15,,,,,,,,,,,,0.156,-0.06,0.018,0,,,,
94059,20100816,-105.21,48.49,0.158,0.03,0,0.048,0.152,-0.11,0.024,0.006,0.149,,,,,,,,,,,,0.155,-0.08,0.018,0,,,,
94059,20100817,-105.21,48.49,0.157,0.01,0,0.018,0.151,-0.13,0.024,0.006,0.148,,,,,,,,,,,,0.154,-0.1,0.018,0,,,,
94059,20100818,-105.21,48.49,0.155,0,0,0.006,0.15,-0.14,0.024,0.006,0.147,,,,,,,,,,,,0.152,-0.11,0.018,0,,,,
94059,20100819,-105.21,48.49,0.154,-0.02,0,0.006,0.148,-0.16,0.024,0.006,0.145,,,,,,,,,,,,0.151,-0.12,0.018,0,,,,
94059,20100820,-105.21,48.49,0.153,-0.03,0,0.006,0.148,-0.16,0.024,0.006,0.145,,,,,,,,,,,,0.15,-0.13,0.018,0,,,,
94059,20100821,-105.21,48.49,0.152,-0.04,0,0.006,0.148,-0.14,0.012,0.006,0.144,,,,,,,,,,,,0.15,-0.12,0.006,0,,,,
94059,20100822,-105.21,48.49,0.15,-0.06,0.006,0.006,0.148,-0.12,0.012,0.012,0.145,,,,,,,,,,,,0.149,-0.12,0,0,,,,
94059,20100823,-105.21,48.49,0.147,-0.09,0.065,0.006,0.148,-0.11,0,0.012,0.145,,,,,,,,,,,,0.148,-0.13,0,0,,,,
94059,20100824,-105.21,48.49,0.154,0.02,0.089,0.107,0.146,-0.13,0.006,0.012,0.144,,,,,,,,,,,,0.15,-0.07,0.006,0.089,,,,
94059,20100825,-105.21,48.49,0.164,0.2,0.089,0.25,0.144,-0.15,0.006,0.006,0.142,,,,,,,,,,,,0.154,0.03,0.006,0.22,,,,
94059,20100826,-105.21,48.49,0.173,0.35,0.089,0.393,0.144,-0.15,0.006,0.006,0.14,,,,,,,,,,,,0.159,0.12,0.006,0.28,,,,
94059,20100827,-105.21,48.49,0.181,0.46,0.089,0.53,0.144,-0.14,0.006,0.006,0.139,,,,,,,,,,,,0.162,0.18,0.006,0.298,,,,
94059,20100828,-105.21,48.49,0.185,0.53,0.089,0.554,0.144,-0.13,0.006,0.006,0.138,,,,,,,,,,,,0.164,0.23,0.006,0.298,,,,
94059,20100829,-105.21,48.49,0.188,0.59,0.083,0.554,0.143,-0.13,0.006,0,0.137,,,,,,,,,,,,0.166,0.26,0.006,0.298,,,,
94059,20100830,-105.21,48.49,0.192,0.64,0.024,0.554,0.143,-0.13,0.006,0,0.136,,,,,,,,,,,,0.167,0.29,0.006,0.298,,,,
94059,20100831,-105.21,48.49,0.194,0.65,0,0.518,0.145,-0.07,0,0.036,0.135,,,,,,,,,,,,0.169,0.32,0,0.274,,,,
94059,20100901,-105.21,48.49,0.201,0.74,0,0.518,0.162,0.22,0,0.179,0.135,,,,,,,,,,,,0.182,0.5,0,0.286,,,,
94059,20100902,-105.21,48.49,0.209,0.82,0,0.518,0.177,0.48,0,0.321,0.135,,,,,,,,,,,,0.193,0.68,0,0.369,,,,
94059,20100903,-105.21,48.49,0.219,0.96,0,0.524,0.191,0.71,0,0.464,0.134,,,,,,,,,,,,0.205,0.88,0,0.494,,,,
94059,20100904,-105.21,48.49,0.232,1.13,0,0.643,0.205,0.95,0,0.607,0.133,,,,,,,,,,,,0.219,1.09,0,0.637,,,,
94059,20100905,-105.21,48.49,0.245,1.3,0,0.786,0.219,1.16,0,0.75,0.133,,,,,,,,,,,,0.232,1.3,0,0.78,,,,
94059,20100906,-105.21,48.49,0.258,1.46,0,0.929,0.232,1.37,0,0.893,0.133,,,,,,,,,,,,0.245,1.5,0,0.923,,,,
94059,20100907,-105.21,48.49,0.261,1.48,0,1,0.241,1.51,0,1,0.134,,,,,,,,,,,,0.251,1.59,0,1,,,,
94059,20100908,-105.21,48.49,0.253,1.36,0,1,0.236,1.41,0,1,0.135,,,,,,,,,,,,0.245,1.48,0,1,,,,
94059,20100909,-105.21,48.49,0.246,1.24,0,1,0.231,1.3,0,1,0.136,,,,,,,,,,,,0.238,1.35,0,1,,,,
94059,20100910,-105.21,48.49,0.237,1.09,0,1,0.225,1.19,0,1,0.137,,,,,,,,,,,,0.231,1.21,0,1,,,,
94059,20100911,-105.21,48.49,0.229,0.94,0,1,0.218,1.07,0,1,0.139,,,,,,,,,,,,0.223,1.07,0,1,,,,
94059,20100912,-105.21,48.49,0.221,0.81,0,0.94,0.212,0.95,0,1,0.14,,,,,,,,,,,,0.216,0.93,0,0.994,,,,
94059,20100913,-105.21,48.49,0.213,0.69,0,0.845,0.206,0.83,0,0.976,0.141,,,,,,,,,,,,0.21,0.8,0,0.929,,,,
94059,20100914,-105.21,48.49,0.206,0.58,0,0.702,0.201,0.74,0,0.911,0.142,,,,,,,,,,,,0.204,0.68,0,0.798,,,,
94059,20100915,-105.21,48.49,0.199,0.47,0,0.56,0.195,0.64,0,0.78,0.144,,,,,,,,,,,,0.197,0.56,0,0.655,,,,
94059,20100916,-105.21,48.49,0.192,0.37,0,0.417,0.191,0.56,0,0.637,0.144,,,,,,,,,,,,0.192,0.46,0,0.512,,,,
94059,20100917,-105.21,48.49,0.186,0.29,0,0.274,0.186,0.48,0,0.494,0.144,,,,,,,,,,,,0.186,0.37,0,0.369,,,,
94059,20100918,-105.21,48.49,0.18,0.2,0,0.131,0.182,0.4,0,0.351,0.144,,,,,,,,,,,,0.181,0.28,0,0.226,,,,
94059,20100919,-105.21,48.49,0.175,0.13,0,0.048,0.177,0.33,0,0.208,0.143,,,,,,,,,,,,0.176,0.2,0,0.089,,,,
94059,20100920,-105.21,48.49,0.171,0.08,0,0,0.173,0.28,0,0.089,0.142,,,,,,,,,,,,0.172,0.13,0,0.012,,,,
94059,20100921,-105.21,48.49,0.167,0.03,0,0,0.17,0.24,0,0.012,0.141,,,,,,,,,,,,0.169,0.09,0,0,,,,
94059,20100922,-105.21,48.49,0.164,-0.01,0,0,0.168,0.2,0,0,0.141,,,,,,,,,,,,0.166,0.05,0,0,,,,
94059,20100923,-105.21,48.49,0.162,-0.04,0,0,0.165,0.16,0,0,0.141,,,,,,,,,,,,0.164,0.01,0,0,,,,
94059,20100924,-105.21,48.49,0.161,-0.06,0,0,0.163,0.12,0,0,0.14,,,,,,,,,,,,0.162,-0.01,0,0,,,,
94059,20100925,-105.21,48.49,0.161,-0.06,0,0,0.162,0.1,0,0,0.139,,,,,,,,,,,,0.162,-0.02,0,0,,,,
94059,20100926,-105.21,48.49,0.163,-0.05,0,0,0.162,0.1,0,0,0.14,,,,,,,,,,,,0.162,-0.01,0,0,,,,
94059,20100927,-105.21,48.49,0.164,-0.04,0,0,0.161,0.09,0,0,0.14,,,,,,,,,,,,0.163,0,0,0,,,,
94059,20100928,-105.21,48.49,0.165,-0.03,0,0,0.161,0.09,0,0,0.14,,,,,,,,,,,,0.163,0,0,0,,,,
94059,20100929,-105.21,48.49,0.167,-0.01,0,0,0.162,0.09,0,0,0.141,,,,,,,,,,,,0.164,0.02,0,0,,,,
94059,20100930,-105.21,48.49,0.167,-0.01,0,0,0.162,0.1,0,0,0.142,,,,,,,,,,,,0.165,0.02,0,0,,,,
94059,20101001,-105.21,48.49,0.167,-0.02,0,0,0.162,0.09,0,0,0.143,,,,,,,,,,,,0.164,0.02,0,0,,,,
94059,20101002,-105.21,48.49,0.165,-0.04,0,0,0.162,0.08,0,0,0.143,,,,,,,,,,,,0.163,0,0,0,,,,
94059,20101003,-105.21,48.49,0.162,-0.07,0,0,0.16,0.05,0,0,0.143,,,,,,,,,,,,0.161,-0.03,0,0,,,,
94059,20101004,-105.21,48.49,0.159,-0.11,0.012,0,0.159,0.03,0,0,0.143,,,,,,,,,,,,0.159,-0.06,0,0,,,,
94059,20101005,-105.21,48.49,0.156,-0.14,0.042,0,0.157,0,0,0,0.143,,,,,,,,,,,,0.157,-0.1,0,0,,,,
94059,20101006,-105.21,48.49,0.153,-0.19,0.167,0,0.155,-0.04,0,0,0.142,,,,,,,,,,,,0.154,-0.13,0.006,0,,,,
94059,20101007,-105.21,48.49,0.15,-0.23,0.31,0,0.153,-0.07,0,0,0.141,,,,,,,,,,,,0.152,-0.16,0.012,0,,,,
94059,20101008,-105.21,48.49,0.148,-0.26,0.446,0,0.152,-0.09,0,0,0.141,,,,,,,,,,,,0.15,-0.19,0.012,0,,,,
94059,20101009,-105.21,48.49,0.146,-0.29,0.589,0,0.151,-0.11,0,0,0.14,,,,,,,,,,,,0.149,-0.2,0.018,0,,,,
94059,20101010,-105.21,48.49,0.144,-0.32,0.732,0,0.151,-0.13,0,0,0.14,,,,,,,,,,,,0.147,-0.22,0.048,0,,,,
94059,20101011,-105.21,48.49,0.141,-0.35,0.863,0,0.15,-0.14,0,0,0.139,,,,,,,,,,,,0.145,-0.24,0.048,0,,,,
94059,20101012,-105.21,48.49,0.139,-0.38,0.976,0,0.149,-0.16,0,0,0.138,,,,,,,,,,,,0.144,-0.26,0.06,0,,,,
94059,20101013,-105.21,48.49,0.137,-0.41,0.994,0,0.147,-0.18,0,0,0.137,,,,,,,,,,,,0.142,-0.27,0.089,0,,,,
94059,20101014,-105.21,48.49,0.135,-0.43,0.994,0,0.146,-0.2,0,0,0.136,,,,,,,,,,,,0.14,-0.28,0.119,0,,,,
94059,20101015,-105.21,48.49,0.133,-0.46,1,0,0.145,-0.21,0,0,0.135,,,,,,,,,,,,0.139,-0.29,0.131,0,,,,
94059,20101016,-105.21,48.49,0.132,-0.48,1,0,0.144,-0.23,0,0,0.134,,,,,,,,,,,,0.138,-0.3,0.149,0,,,,
94059,20101017,-105.21,48.49,0.131,-0.51,1,0,0.142,-0.24,0,0,0.132,,,,,,,,,,,,0.136,-0.32,0.25,0,,,,
94059,20101018,-105.21,48.49,0.129,-0.54,1,0,0.14,-0.26,0,0,0.13,,,,,,,,,,,,0.135,-0.35,0.387,0,,,,
94059,20101019,-105.21,48.49,0.128,-0.57,1,0,0.139,-0.27,0,0,0.129,,,,,,,,,,,,0.133,-0.37,0.518,0,,,,
94059,20101020,-105.21,48.49,0.127,-0.59,1,0,0.138,-0.27,0,0,0.128,,,,,,,,,,,,0.133,-0.4,0.625,0,,,,
94059,20101021,-105.21,48.49,0.126,-0.62,1,0,0.138,-0.28,0,0,0.127,,,,,,,,,,,,0.132,-0.43,0.732,0,,,,
94059,20101022,-105.21,48.49,0.125,-0.65,1,0,0.137,-0.28,0,0,0.126,,,,,,,,,,,,0.131,-0.47,0.863,0,,,,
94059,20101023,-105.21,48.49,0.124,-0.67,1,0,0.137,-0.29,0,0,0.125,,,,,,,,,,,,0.13,-0.51,0.982,0,,,,
94059,20101024,-105.21,48.49,0.123,-0.7,1,0,0.137,-0.29,0,0,0.125,,,,,,,,,,,,0.13,-0.55,0.994,0,,,,
94059,20101025,-105.21,48.49,0.123,-0.72,1,0,0.137,-0.28,0,0,0.125,,,,,,,,,,,,0.13,-0.59,1,0,,,,
94059,20101026,-105.21,48.49,0.124,-0.72,1,0,0.137,-0.28,0,0,0.125,,,,,,,,,,,,0.13,-0.61,1,0,,,,
94059,20101027,-105.21,48.49,0.127,-0.7,1,0,0.135,-0.29,0.024,0,0.124,,,,,,,,,,,,0.131,-0.63,1,0,,,,
94059,20101028,-105.21,48.49,0.131,-0.67,1,0,0.134,-0.31,0.101,0,0.122,,,,,,,,,,,,0.132,-0.64,1,0,,,,
94059,20101029,-105.21,48.49,0.135,-0.63,0.964,0,0.133,-0.32,0.196,0,0.119,,,,,,,,,,,,0.134,-0.65,0.994,0,,,,
94059,20101030,-105.21,48.49,0.148,-0.48,0.821,0.077,0.131,-0.34,0.256,0,0.117,,,,,,,,,,,,0.14,-0.57,0.893,0.006,,,,
94059,20101031,-105.21,48.49,0.166,-0.27,0.679,0.22,0.131,-0.34,0.262,0,0.114,,,,,,,,,,,,0.148,-0.45,0.75,0.03,,,,
94059,20101101,-105.21,48.49,0.184,-0.06,0.536,0.363,0.131,-0.33,0.262,0,0.112,,,,,,,,,,,,0.158,-0.31,0.607,0.083,,,,
94059,20101102,-105.21,48.49,0.2,0.13,0.393,0.506,0.132,-0.31,0.262,0,0.11,,,,,,,,,,,,0.166,-0.17,0.464,0.185,,,,
94059,20101103,-105.21,48.49,0.213,0.28,0.25,0.643,0.135,-0.28,0.238,0,0.11,,,,,,,,,,,,0.174,-0.05,0.321,0.238,,,,
94059,20101104,-105.21,48.49,0.225,0.42,0.107,0.774,0.137,-0.25,0.161,0,0.111,,,,,,,,,,,,0.181,0.07,0.179,0.244,,,,
94059,20101105,-105.21,48.49,0.235,0.55,0,0.905,0.139,-0.22,0.065,0,0.111,,,,,,,,,,,,0.187,0.17,0.042,0.25,,,,
94059,20101106,-105.21,48.49,0.236,0.57,0,0.935,0.142,-0.18,0.006,0,0.111,,,,,,,,,,,,0.189,0.2,0,0.244,,,,
94059,20101107,-105.21,48.49,0.233,0.54,0,0.905,0.144,-0.15,0,0,0.113,,,,,,,,,,,,0.189,0.19,0,0.238,,,,
94059,20101108,-105.21,48.49,0.23,0.5,0,0.875,0.146,-0.12,0,0,0.114,,,,,,,,,,,,0.188,0.17,0,0.22,,,,
94059,20101109,-105.21,48.49,0.226,0.45,0,0.768,0.147,-0.11,0,0,0.116,,,,,,,,,,,,0.187,0.15,0,0.125,,,,
94059,20101110,-105.21,48.49,0.223,0.39,0,0.637,0.147,-0.1,0,0,0.116,,,,,,,,,,,,0.185,0.11,0,0.072,,,,
94059,20101111,-105.21,48.49,0.22,0.34,0,0.509,0.147,-0.1,0,0,0.116,,,,,,,,,,,,0.184,0.09,0,0.072,,,,
94059,20101112,-105.21,48.49,0.218,0.3,0,0.423,0.147,-0.09,0,0,0.115,,,,,,,,,,,,0.183,0.07,0,0.075,,,,
94059,20101113,-105.21,48.49,,,,,0.145,-0.11,0.012,0,0.114,,,,,,,,,,,,,,,,,,,
94059,20101114,-105.21,48.49,,,,,0.143,-0.12,0.024,0,0.111,,,,,,,,,,,,,,,,,,,
94059,20101115,-105.21,48.49,,,,,0.141,-0.14,0.037,0,0.108,,,,,,,,,,,,,,,,,,,
94059,20101116,-105.21,48.49,,,,,0.14,-0.15,0.037,0,0.105,,,,,,,,,,,,,,,,,,,
94059,20101117,-105.21,48.49,,,,,0.138,-0.16,0.048,0,0.103,,,,,,,,,,,,,,,,,,,
94059,20101118,-105.21,48.49,,,,,0.137,-0.17,0.058,0,0.102,,,,,,,,,,,,,,,,,,,
94059,20101119,-105.21,48.49,,,,,,,,,0.102,,,,,,,,,,,,,,,,,,,
94059,20101120,-105.21,48.49,,,,,,,,,0.097,,,,,,,,,,,,,,,,,,,
94059,20101121,-105.21,48.49,,,,,,,,,0.096,,,,,,,,,,,,,,,,,,,
94059,20101122,-105.21,48.49,,,,,,,,,,,,,,,,,,,,,,,,,,,,
94059,20101123,-105.21,48.49,,,,,,,,,,,,,,,,,,,,,,,,,,,,
94059,20101124,-105.21,48.49,,,,,,,,,,,,,,,,,,,,,,,,,,,,
94059,20101125,-105.21,48.49,,,,,,,,,,,,,,,,,,,,,,,,,,,,
94059,20101126,-105.21,48.49,,,,,,,,,,,,,,,,,,,,,,,,,,,,
94059,20101127,-105.21,48.49,,,,,,,,,,,,,,,,,,,,,,,,,,,,
94059,20101128,-105.21,48.49,,,,,,,,,,,,,,,,,,,,,,,,,,,,
94059,20101129,-105.21,48.49,,,,,,,,,,,,,,,,,,,,,,,,,,,,
94059,20101130,-105.21,48.49,,,,,,,,,,,,,,,,,,,,,,,,,,,,
94059,20101201,-105.21,48.49,,,,,,,,,,,,,,,,,,,,,,,,,,,,
94059,20101202,-105.21,48.49,,,,,,,,,,,,,,,,,,,,,,,,,,,,
94059,20101203,-105.21,48.49,,,,,,,,,,,,,,,,,,,,,,,,,,,,
94059,20101204,-105.21,48.49,,,,,,,,,,,,,,,,,,,,,,,,,,,,
94059,20101205,-105.21,48.49,,,,,,,,,,,,,,,,,,,,,,,,,,,,
94059,20101206,-105.21,48.49,,,,,,,,,,,,,,,,,,,,,,,,,,,,
94059,20101207,-105.21,48.49,,,,,,,,,,,,,,,,,,,,,,,,,,,,
94059,20101208,-105.21,48.49,,,,,,,,,,,,,,,,,,,,,,,,,,,,
94059,20101209,-105.21,48.49,,,,,,,,,,,,,,,,,,,,,,,,,,,,
94059,20101210,-105.21,48.49,,,,,,,,,,,,,,,,,,,,,,,,,,,,
94059,20101211,-105.21,48.49,,,,,,,,,,,,,,,,,,,,,,,,,,,,
94059,20101212,-105.21,48.49,,,,,,,,,,,,,,,,,,,,,,,,,,,,
94059,20101213,-105.21,48.49,,,,,,,,,,,,,,,,,,,,,,,,,,,,
94059,20101214,-105.21,48.49,,,,,,,,,,,,,,,,,,,,,,,,,,,,
94059,20101215,-105.21,48.49,,,,,,,,,,,,,,,,,,,,,,,,,,,,
94059,20101216,-105.21,48.49,,,,,,,,,,,,,,,,,,,,,,,,,,,,
94059,20101217,-105.21,48.49,,,,,,,,,,,,,,,,,,,,,,,,,,,,
94059,20101218,-105.21,48.49,,,,,,,,,,,,,,,,,,,,,,,,,,,,
94059,20101219,-105.21,48.49,,,,,,,,,,,,,,,,,,,,,,,,,,,,
94059,20101220,-105.21,48.49,,,,,,,,,,,,,,,,,,,,,,,,,,,,
94059,20101221,-105.21,48.49,,,,,,,,,,,,,,,,,,,,,,,,,,,,
94059,20101222,-105.21,48.49,,,,,,,,,,,,,,,,,,,,,,,,,,,,
94059,20101223,-105.21,48.49,,,,,,,,,,,,,,,,,,,,,,,,,,,,
94059,20101224,-105.21,48.49,,,,,,,,,,,,,,,,,,,,,,,,,,,,
94059,20101225,-105.21,48.49,,,,,,,,,,,,,,,,,,,,,,,,,,,,
94059,20101226,-105.21,48.49,,,,,,,,,,,,,,,,,,,,,,,,,,,,
94059,20101227,-105.21,48.49,,,,,,,,,,,,,,,,,,,,,,,,,,,,
94059,20101228,-105.21,48.49,,,,,,,,,,,,,,,,,,,,,,,,,,,,
94059,20101229,-105.21,48.49,,,,,,,,,,,,,,,,,,,,,,,,,,,,
94059,20101230,-105.21,48.49,,,,,,,,,,,,,,,,,,,,,,,,,,,,
94059,20101231,-105.21,48.49,,,,,,,,,,,,,,,,,,,,,,,,,,,,
94059,20110101,-105.21,48.49,,,,,,,,,,,,,,,,,,,,,,,,,,,,
94059,20110102,-105.21,48.49,,,,,,,,,,,,,,,,,,,,,,,,,,,,
94059,20110103,-105.21,48.49,,,,,,,,,,,,,,,,,,,,,,,,,,,,
94059,20110104,-105.21,48.49,,,,,,,,,,,,,,,,,,,,,,,,,,,,
94059,20110105,-105.21,48.49,,,,,,,,,,,,,,,,,,,,,,,,,,,,
94059,20110106,-105.21,48.49,,,,,,,,,,,,,,,,,,,,,,,,,,,,
94059,20110107,-105.21,48.49,,,,,,,,,,,,,,,,,,,,,,,,,,,,
94059,20110108,-105.21,48.49,,,,,,,,,,,,,,,,,,,,,,,,,,,,
94059,20110109,-105.21,48.49,,,,,,,,,,,,,,,,,,,,,,,,,,,,
94059,20110110,-105.21,48.49,,,,,,,,,,,,,,,,,,,,,,,,,,,,
94059,20110111,-105.21,48.49,,,,,,,,,,,,,,,,,,,,,,,,,,,,
94059,20110112,-105.21,48.49,,,,,,,,,,,,,,,,,,,,,,,,,,,,
94059,20110113,-105.21,48.49,,,,,,,,,,,,,,,,,,,,,,,,,,,,
94059,20110114,-105.21,48.49,,,,,,,,,,,,,,,,,,,,,,,,,,,,
94059,20110115,-105.21,48.49,,,,,,,,,,,,,,,,,,,,,,,,,,,,
94059,20110116,-105.21,48.49,,,,,,,,,,,,,,,,,,,,,,,,,,,,
94059,20110117,-105.21,48.49,,,,,,,,,,,,,,,,,,,,,,,,,,,,
94059,20110118,-105.21,48.49,,,,,,,,,,,,,,,,,,,,,,,,,,,,
94059,20110119,-105.21,48.49,,,,,,,,,,,,,,,,,,,,,,,,,,,,
94059,20110120,-105.21,48.49,,,,,,,,,,,,,,,,,,,,,,,,,,,,
94059,20110121,-105.21,48.49,,,,,,,,,,,,,,,,,,,,,,,,,,,,
94059,20110122,-105.21,48.49,,,,,,,,,,,,,,,,,,,,,,,,,,,,
94059,20110123,-105.21,48.49,,,,,,,,,,,,,,,,,,,,,,,,,,,,
94059,20110124,-105.21,48.49,,,,,,,,,,,,,,,,,,,,,,,,,,,,
94059,20110125,-105.21,48.49,,,,,,,,,,,,,,,,,,,,,,,,,,,,
94059,20110126,-105.21,48.49,,,,,,,,,,,,,,,,,,,,,,,,,,,,
94059,20110127,-105.21,48.49,,,,,,,,,,,,,,,,,,,,,,,,,,,,
94059,20110128,-105.21,48.49,,,,,,,,,,,,,,,,,,,,,,,,,,,,
94059,20110129,-105.21,48.49,,,,,,,,,,,,,,,,,,,,,,,,,,,,
94059,20110130,-105.21,48.49,,,,,,,,,,,,,,,,,,,,,,,,,,,,
94059,20110131,-105.21,48.49,,,,,,,,,,,,,,,,,,,,,,,,,,,,
94059,20110201,-105.21,48.49,,,,,,,,,,,,,,,,,,,,,,,,,,,,
94059,20110202,-105.21,48.49,,,,,,,,,,,,,,,,,,,,,,,,,,,,
94059,20110203,-105.21,48.49,,,,,,,,,,,,,,,,,,,,,,,,,,,,
94059,20110204,-105.21,48.49,,,,,,,,,,,,,,,,,,,,,,,,,,,,
94059,20110205,-105.21,48.49,,,,,,,,,,,,,,,,,,,,,,,,,,,,
94059,20110206,-105.21,48.49,,,,,,,,,,,,,,,,,,,,,,,,,,,,
94059,20110207,-105.21,48.49,,,,,,,,,,,,,,,,,,,,,,,,,,,,
94059,20110208,-105.21,48.49,,,,,,,,,,,,,,,,,,,,,,,,,,,,
94059,20110209,-105.21,48.49,,,,,,,,,,,,,,,,,,,,,,,,,,,,
94059,20110210,-105.21,48.49,,,,,,,,,,,,,,,,,,,,,,,,,,,,
94059,20110211,-105.21,48.49,,,,,,,,,,,,,,,,,,,,,,,,,,,,
94059,20110212,-105.21,48.49,,,,,,,,,,,,,,,,,,,,,,,,,,,,
94059,20110213,-105.21,48.49,,,,,,,,,,,,,,,,,,,,,,,,,,,,
94059,20110214,-105.21,48.49,,,,,,,,,,,,,,,,,,,,,,,,,,,,